Weather in Lankaran

Azerbaijan     38°45′49″N   48°49′50″E
temp.,
°C
wind,
m/s
gust,
m/s
humid.,
%
clouds,
%
prec.,
mm/h
press.,
hPa
HPBL,
m
17 june, thu
thu1701:00+22ssw33570 0.0 100743
04:00+22ssw22450 0.0 100619
07:00+26sse36420 0.0 1006231
10:00+31se58450 0.0 1006969
13:00+32ese68410 0.0 1006994
16:00+33se58350 0.0 1005964
19:00+29se35480 0.0 1006262
22:00+24wsw11490 0.0 100713
18 june, fri
fri1801:00+23w22460 0.0 100915
04:00+23w32350 0.0 101117
07:00+28s12330 0.0 1013488
10:00+30ese45390 0.0 10131305
13:00+30ene54450 0.0 10131106
16:00+29e43450 0.0 10121013
19:00+26ene21570 0.0 1013440
22:00+21wsw11710 0.0 101415
19 june, sat
sat1901:00+20wsw22520 0.0 101412
04:00+21wsw22380 0.0 101412
07:00+26sw12310 0.0 101590
10:00+32ese43240 0.0 10141229
13:00+33ese54260 0.0 10131137
16:00+33e43270 0.0 1011839
19:00+29ese234285 0.0 1011182
22:00+24sw22411 0.0 101217
20 june, sun
sun2001:00+22w114080 0.0 101213
04:00+22w2137100 0.0 101212
07:00+24se124213 0.0 1013130
10:00+34ese46203 0.0 10121113
13:00+33ese57300 0.0 1011995
16:00+32ese56360 0.0 1011778
19:00+28se45540 0.0 1011301
22:00+23ssw22590 0.0 101219
21 june, mon
mon2101:00+23wsw11480 0.0 101113
04:00+21w11520 0.0 101111
07:00+25nnw11410 0.0 1012120
10:00+32e32310 0.0 1012877
13:00+34ese56230 0.0 10121128
16:00+32ese57250 0.0 1011999
19:00+29se45330 0.0 1011353
22:00+23sw22250 0.0 101119